Weather observations for the past three days for
Harry Clever Field Airport
Imperial (Metric)
Date Time (edt) Wind (mph) Vis. (mi.) Weather Sky Cond. Temperature (ºF) Relative Humidity Wind Chill (°F) Heat Index (°F) Pressure Precipitation (in)
Air Dwpt 6 hour altimeter (in) sea level (mb) 1 hr 3 hr 6 hr
Max. Min.
24 23:53 Calm 10.00 Mostly Cloudy SCT055 BKN080 70 68 93% 30.15 1020.3
24 22:53 Calm 10.00 Mostly Cloudy FEW045 BKN110 69.1 68 96% 30.15 1020.4
24 21:53 Calm 10.00 Mostly Cloudy SCT040 BKN050 71.1 69.1 94% 30.14 1020.1
24 20:53 Calm 10.00 Partly Cloudy FEW034 SCT048 73.9 71.1 91% 30.11 1019.0
24 19:53 Vrbl 3 10.00 Fair CLR 78.1 70 82 69.1 76% 80 30.1 1018.6 0.02
24 18:53 SW 5 10.00 Fair CLR 80.1 69.1 69% 83 30.07 1017.8
24 17:53 SW 7 10.00 A Few Clouds FEW110 82 69.1 65% 85 30.09 1018.3
24 16:53 Vrbl 6 10.00 Fair CLR 82 70 67% 86 30.07 1017.7 0.02
24 15:53 S 7 10.00 Fair CLR 79 69.1 72% 82 30.09 1018.3
24 14:53 SE 7 10.00 Mostly Cloudy BKN110 71.1 66.9 87% 30.12 1019.5 0.02
24 13:53 W 10 G 22 10.00 Heavy Rain SCT036 BKN043 BKN050 77 70 84.9 66 79% 79 30.12 1019.5 0.1 0.1
24 12:53 W 7 G 16 10.00 A Few Clouds FEW034 82 68 63% 85 30.12 1019.4
24 11:53 Vrbl 6 10.00 Fair CLR 81 69.1 67% 84 30.13 1019.7
24 10:53 Vrbl 5 10.00 Fair CLR 78.1 69.1 74% 80 30.14 1020.0
24 09:53 Calm 10.00 Mostly Cloudy SCT007 BKN080 73.9 69.1 85% 30.14 1019.9
24 08:53 Calm 10.00 Overcast OVC004 69.1 68 96% 30.14 1020.1
24 07:53 SE 5 10.00 Overcast OVC006 66 66 66 63 100% 30.12 1019.4
24 06:53 SE 6 10.00 Overcast BKN002 OVC007 64.9 64.9 100% 30.11 1019.0
24 05:53 SE 3 10.00 Overcast BKN001 OVC006 64.9 64.9 100% 30.1 1018.6
24 04:53 SE 5 10.00 Mostly Cloudy BKN001 64.9 64.9 100% 30.09 1018.5
24 03:53 Calm 10.00 Fair CLR 64.9 64.9 100% 30.08 1018.2
24 02:53 Calm 10.00 Fair CLR 64.9 64.9 100% 30.08 1017.9
24 01:53 Calm 10.00 Partly Cloudy SCT055 64.9 64.9 75 64.9 100% 30.09 1018.4
24 00:53 SE 3 10.00 Fair CLR 66 66 100% 30.1 1018.6
23 23:53 Calm 10.00 Fair CLR 66.9 66.9 100% 30.1 1018.7
23 22:53 Calm 10.00 Fair CLR 70 68 93% 30.09 1018.4
23 21:53 Calm 10.00 Fair CLR 70 69.1 97% 30.09 1018.3
23 20:53 S 5 10.00 Fair CLR 73 69.1 87% 30.07 1017.9
23 19:53 SE 6 10.00 Fair CLR 75 68 87.1 75 79% 76 30.06 1017.4
23 18:53 SE 5 10.00 Mostly Cloudy BKN120 77 69.1 77% 79 30.06 1017.4
23 17:53 W 5 10.00 Mostly Cloudy FEW032 SCT044 BKN065 79 68 69% 81 30.05 1017.1
23 16:53 SW 3 10.00 A Few Clouds FEW070 79 66.9 67% 81 30.05 1017.2
23 15:53 S 7 10.00 Partly Cloudy SCT110 82 64.9 56% 84 30.06 1017.3
23 14:53 Vrbl 3 10.00 Partly Cloudy SCT046 SCT120 84 64.9 53% 86 30.05 1017.0
23 13:53 S 5 10.00 A Few Clouds FEW046 84 64.9 84.9 64.9 53% 86 30.08 1017.9
23 12:53 W 7 10.00 Mostly Cloudy BKN040 82.9 66 57% 85 30.09 1018.4
23 11:53 Vrbl 3 10.00 Fair CLR 81 66 61% 83 30.1 1018.5
23 10:53 SW 5 10.00 Fair CLR 80.1 68 67% 83 30.09 1018.4
23 09:53 Calm 10.00 Fair CLR 72 69.1 91% 30.1 1018.7
23 08:53 Calm 10.00 Mostly Cloudy BKN003 66.9 66.9 100% 30.09 1018.5
23 07:53 E 3 10.00 Overcast OVC002 64.9 64.9 64.9 61 100% 30.08 1018.1
23 06:53 SE 6 10.00 Overcast OVC002 63 63 100% 30.07 1017.8
23 05:53 E 3 10.00 Overcast OVC002 63 63 100% 30.06 1017.3
23 04:53 Calm 10.00 Overcast OVC002 63 63 100% 30.05 1017.0
23 03:53 Calm 10.00 Overcast OVC002 63 63 100% 30.05 1017.1
23 02:53 Calm 10.00 Overcast OVC002 62.1 62.1 100% 30.06 1017.4
23 01:53 Calm 10.00 Partly Cloudy SCT002 63 63 75 62.1 100% 30.04 1017.0
23 00:53 Calm 10.00 Fair CLR 63 63 100% 30.04 1016.9
22 23:53 Calm 10.00 Fair CLR 64.9 64 97% 30.03 1016.6
22 22:53 Calm 10.00 Fair CLR 66.9 64 91% 30.03 1016.3
22 21:53 Calm 10.00 Fair CLR 69.1 66 90% 30.02 1016.1
22 20:53 Calm 10.00 Overcast FEW070 OVC085 73 66.9 81% 30.01 1015.5
22 19:53 Calm 10.00 Overcast BKN024 OVC090 75 66 75.9 72 74% 76 30 1015.2 0.01
22 18:53 SW 3 10.00 Fair CLR 75 66.9 76% 76 29.99 1015.1
22 17:53 Calm 10.00 Mostly Cloudy FEW017 BKN120 73.9 68 82% 30 1015.3
22 16:53 SW 3 10.00 Overcast OVC110 73.9 68 82% 30.01 1015.6 0.01
22 15:53 S 3 10.00 Overcast OVC100 73.9 69.1 85% 30.02 1016.1
22 14:53 Calm 10.00 Overcast FEW055 BKN090 OVC110 73 68 84% 30.02 1016.1 0.01
22 13:53 SE 3 10.00 Light Rain OVC100 73 69.1 77 68 87% 30.03 1016.5 0.02 0.02
22 12:53 S 5 10.00 Light Rain OVC110 75 66.9 76% 76 30.04 1016.5
22 11:53 Calm 10.00 Mostly Cloudy SCT100 BKN120 77 64 64% 79 30.03 1016.4
22 10:53 Calm 10.00 Fair CLR 75 63 66% 77 30.03 1016.2
22 09:53 Calm 10.00 Fair CLR 73 63 71% 30.04 1016.5
22 08:53 Calm 10.00 A Few Clouds FEW110 71.1 64 79% 30.04 1016.6
22 07:53 Calm 10.00 Fair CLR 68 64 68 64 87% 30.02 1016.0
22 06:53 Calm 10.00 A Few Clouds FEW110 64.9 64 97% 30.02 1016.0
22 05:53 Calm 10.00 Partly Cloudy SCT120 64.9 62.1 90% 30.02 1016.1
22 04:53 Calm 10.00 Overcast OVC120 66 63 90% 30.03 1016.2
22 03:53 Calm 10.00 Overcast OVC120 66 63 90% 30.04 1016.6
22 02:53 Calm 10.00 A Few Clouds FEW120 66.9 63 87% 30.06 1017.2
22 01:53 Calm 10.00 Fair CLR 66.9 62.1 77 66 84% 30.07 1017.8
22 00:53 Calm 10.00 Fair CLR 68 63 84% 30.09 1018.2
Date Time (edt) Wind (mph) Vis. (mi.) Weather Sky Cond. Air Dwpt Max. Min. Relative Humidity Wind Chill (°F) Heat Index (°F) altimeter (in) sea level (mb) 1 hr 3 hr 6 hr
6 hour
Temperature (ºF) Pressure Precipitation (in)